Find Local Weather

World > North America > United States > Pennsylvania

Connie Mack Stadium, Pennsylvania Regional Weather

Lat: 40.00N, Lon: 75.17W
Wx Zone: PAZ071
Feedback
Expires:201804220900;;320320
ASUS41 KPHI 220813
RWRPHI

REGIONAL WEATHER ROUNDUP
NATIONAL WEATHER SERVICE MOUNT HOLLY NJ
400 AM EDT SUN APR 22 2018

NOTE:  "FAIR" INDICATES FEW OR NO CLOUDS BELOW 12,000 FEET WITH NO
SIGNIFICANT WEATHER AND/OR OBSTRUCTIONS TO VISIBILITY.

 * = STATION DOES NOT REPORT PRECIPITATION (E.G. RAIN, SNOW, ETC.) 
        OR FOG.


PAZ043-044-047-054-055-060>062-066>071-220900-
EASTERN PENNSYLVANIA
  
CITY           SKY/WX    TMP DP  RH WIND       PRES   REMARKS
PHILADELPHIA   MOCLDY    46  27  47 CALM      30.39S                  
NORTH PHILA    FAIR      45  26  47 N3        30.40S                  
BLUE BELL*     FAIR      36  30  80 CALM      30.40S                  
DOYLESTOWN     FAIR      41  21  44 N5        30.38S                  
QUAKERTOWN*    CLEAR     32  30  93 CALM      30.39S                  
PERKASIE*      FAIR      39  21  48 N3        30.39F                  
POTTSTOWN      FAIR      36  26  67 CALM      30.40F                  
LANCASTER      FAIR      41  31  67 SE5       30.38S                  
COATESVILLE    FAIR      46  21  36 N3        30.39S                  
READING        FAIR      36  31  82 NW3       30.39R                  
ALLENTOWN      FAIR      38  25  59 CALM      30.40S                  
MOUNT POCONO   FAIR      32  15  49 NW6       30.35F WCI  26          
HAZLETON       FAIR      32  10  40 CALM      30.40S                  
LEHIGHTON      FAIR      28  28 100 CALM      30.41F                  
WILKES BARRE   FAIR      35  19  52 SE6       30.38F WCI  30          

$$

SKY/WX - Weather  TMP - Temperature  DP - Dewpoint  RH - Relative Humidity
WIND - Wind Direction/Speed PRES - Barometric Pressure